Simultaneous Nadir Overpasses (SNOs) Predictions

Prediction of SNOs between NPP and TERRA Satellite Orbit:

Table of predicted SNOs for the next 14.0 days since TLE Epoch: 1/28/2012
Index Date (NPP) Time (NPP) Lat,Lon (NPP) SZA (NPP ) Date (TERRA) Time (TERRA) Lat,Lon (TERRA) SZA (TERRA ) Distance(km) Time Diff (sec)
1 01/29/2012 19:12:14 -68.38, 70.46 93.73 01/29/2012 19:12:54 -68.38, 70.41 93.74 1.85 40
2 01/29/2012 20:02:58 68.26,-122.08 86.13 01/29/2012 20:02:21 68.27,-122.08 86.14 1.02 37
3 02/01/2012 10:38:34 68.90, 18.22 86.09 02/01/2012 10:39:44 68.79, 19.18 85.94 40.52 70
4 02/01/2012 11:29:07 -68.33,-173.71 94.52 02/01/2012 11:29:20 -68.35,-173.73 94.50 2.57 13
5 02/01/2012 12:19:51 68.21, -6.25 85.35 02/01/2012 12:18:47 68.24, -6.22 85.38 2.75 64
6 02/04/2012 02:55:19 68.43, 134.61 84.82 02/04/2012 02:56:16 68.41, 134.60 84.79 2.60 57
7 02/04/2012 03:46:00 -68.29, -57.88 95.34 02/04/2012 03:45:46 -68.31, -57.89 95.32 2.35 14
8 02/04/2012 04:36:33 67.58, 110.31 83.92 02/04/2012 04:35:23 67.62, 108.96 84.01 57.40 70
9 02/06/2012 19:12:11 68.39,-109.57 83.98 02/06/2012 19:12:40 68.40,-109.52 83.97 1.96 29
10 02/06/2012 20:02:52 -68.24, 57.95 96.20 02/06/2012 20:02:11 -68.24, 57.93 96.20 0.92 41
11 02/09/2012 10:38:24 -68.68,-161.48 96.56 02/09/2012 10:39:36 -68.60,-161.02 96.66 20.57 72
12 02/09/2012 11:29:03 68.30, 6.32 83.05 02/09/2012 11:29:06 68.31, 6.27 83.05 1.89 3
13 02/09/2012 12:19:45 -68.20, 173.77
